FW5295 Weather Reports


time (UTC)temp
F
wind
direction
speed
knots
gust
knots
rain 1hr
in
rain 24hr
in
rain mn
in
humidity
%
barometer
mb
20260902123221 75 238 1.7 3.5 0.00 0.00 0.00 86 1014.3
20260902122456 75 269 0.9 3.5 0.00 0.00 0.00 86 1014.0
20260902121956 75 236 1.7 3.5 0.00 0.00 0.00 86 1014.3
20260902121455 75 264 1.7 3.5 0.00 0.00 0.00 86 1014.3
20260902120954 75 218 0.9 3.5 0.00 0.00 0.00 86 1014.0
20260902120453 74 252 1.7 3.5 0.00 0.00 0.00 86 1014.3
20260902120219 74 281 1.7 2.6 0.00 0.00 0.00 86 1014.0
20260902115453 74 249 1.7 2.6 0.00 0.00 0.00 87 1014.0
20260902114952 74 198 0.0 2.6 0.00 0.00 0.00 87 1013.7
20260902114451 74 203 0.0 3.5 0.00 0.00 0.00 88 1013.7
20260902114434 74 241 1.7 3.5 0.00 0.00 0.00 88 1014.0
20260902113451 74 224 0.0 3.5 0.00 0.00 0.00 88 1013.7
20260902112950 74 237 2.6 3.5 0.00 0.00 0.00 88 1014.0
20260902112715 74 207 0.9 3.5 0.00 0.00 0.00 89 1014.0
20260902111949 74 231 1.7 2.6 0.00 0.00 0.00 89 1013.7
20260902111708 74 43 0.9 2.6 0.00 0.00 0.00 89 1014.0
20260902110950 74 235 1.7 2.6 0.00 0.00 0.00 89 1014.0
20260902110447 74 223 0.9 3.5 0.00 0.00 0.00 90 1014.0
20260902105946 74 227 1.7 3.5 0.00 0.00 0.00 89 1014.0
20260902105446 74 226 1.7 3.5 0.00 0.00 0.00 89 1014.0
20260902104946 74 235 1.7 3.5 0.00 0.00 0.00 89 1014.0
20260902104447 74 219 1.7 4.3 0.00 0.00 0.00 89 1014.3
20260902103945 74 210 1.7 4.3 0.00 0.00 0.00 89 1014.0
20260902103445 74 263 0.9 3.5 0.00 0.00 0.00 88 1014.3
20260902103209 74 249 1.7 3.5 0.00 0.00 0.00 88 1014.3
20260902102444 74 235 0.9 3.5 0.00 0.00 0.00 88 1014.0
20260902101944 74 231 1.7 2.6 0.00 0.00 0.00 88 1014.0
20260902101442 75 219 1.7 3.5 0.00 0.00 0.00 88 1014.0
20260902100942 75 241 1.7 3.5 0.00 0.00 0.00 88 1014.3
20260902100442 75 264 2.6 3.5 0.00 0.00 0.00 87 1014.0
20260902095942 75 253 2.6 3.5 0.00 0.00 0.00 87 1014.0
20260902095440 75 241 0.0 3.5 0.00 0.00 0.00 87 1014.0
20260902094939 75 265 0.9 3.5 0.00 0.00 0.00 87 1014.0
20260902094439 75 235 1.7 3.5 0.00 0.00 0.00 86 1014.3
20260902094200 75 213 0.9 3.5 0.00 0.00 0.00 86 1014.3
20260902093439 76 236 1.7 4.3 0.00 0.00 0.00 86 1014.3
20260902093204 76 256 1.7 4.3 0.00 0.00 0.00 86 1014.0
20260902092436 76 250 1.7 4.3 0.00 0.00 0.00 86 1014.3
20260902091936 76 234 1.7 3.5 0.00 0.00 0.00 86 1014.0
20260902091435 76 260 0.9 2.6 0.00 0.00 0.00 86 1014.0
20260902090936 76 259 0.9 2.6 0.00 0.00 0.00 86 1014.0
20260902090436 76 236 1.7 3.5 0.00 0.00 0.00 86 1014.0
20260902085934 76 263 1.7 3.5 0.00 0.00 0.00 86 1014.0
20260902085434 76 222 1.7 2.6 0.00 0.00 0.00 86 1014.0
20260902084934 76 225 1.7 1.7 0.00 0.00 0.00 85 1013.7
20260902084433 76 237 0.9 2.6 0.00 0.00 0.00 85 1014.0
20260902084157 76 225 1.7 2.6 0.00 0.00 0.00 85 1013.7
20260902083431 76 238 1.7 3.5 0.00 0.00 0.00 85 1013.7
20260902082933 76 257 0.9 3.5 0.00 0.00 0.00 85 1013.7
20260902082434 76 242 1.7 3.5 0.00 0.00 0.00 85 1013.7
20260902081930 76 236 1.7 3.5 0.00 0.00 0.00 85 1013.7
20260902081430 76 221 1.7 2.6 0.00 0.00 0.00 85 1013.7
20260902080929 76 231 1.7 2.6 0.00 0.00 0.00 85 1013.7
20260902080430 76 219 1.7 2.6 0.00 0.00 0.00 85 1013.7
20260902075928 76 224 1.7 2.6 0.00 0.00 0.00 85 1013.7
20260902075427 76 245 1.7 3.5 0.00 0.00 0.00 85 1013.7
20260902075146 76 228 1.7 3.5 0.00 0.00 0.00 85 1013.7
20260902074430 76 219 1.7 2.6 0.00 0.00 0.00 86 1013.7
20260902073927 76 213 1.7 2.6 0.00 0.00 0.00 86 1013.7
20260902073426 76 219 1.7 2.6 0.00 0.00 0.00 86 1013.7
20260902072927 76 229 0.9 2.6 0.00 0.00 0.00 86 1013.7
20260902072426 76 235 1.7 3.5 0.00 0.00 0.00 86 1013.7
20260902071925 76 237 2.6 3.5 0.00 0.00 0.00 86 1013.7
20260902071425 76 246 1.7 2.6 0.00 0.00 0.00 86 1013.7
20260902070937 76 229 0.9 3.5 0.00 0.00 0.00 86 1013.7
20260902070654 76 217 1.7 3.5 0.00 0.00 0.00 86 1013.7
20260902070143 76 241 1.7 2.6 0.00 0.00 0.00 87 1014.0
20260902065423 76 227 1.7 2.6 0.00 0.00 0.00 87 1013.7
20260902064922 76 236 1.7 3.5 0.00 0.00 0.00 87 1013.7
20260902064421 76 220 1.7 4.3 0.00 0.00 0.00 87 1013.7
20260902064146 76 231 1.7 4.3 0.00 0.00 0.00 88 1013.7
20260902063419 76 220 1.7 3.5 0.00 0.00 0.00 88 1014.0
20260902062921 76 222 1.7 3.5 0.00 0.00 0.00 88 1013.7
20260902062420 76 231 1.7 4.3 0.00 0.00 0.00 88 1013.7
20260902061921 77 223 2.6 4.3 0.00 0.00 0.00 88 1013.7
20260902061839 77 252 3.5 3.5 0.00 0.00 0.00 88 1013.7
20260902061513 77 253 1.7 3.5 0.00 0.00 0.00 88 1014.0
20260902060417 77 238 1.7 3.5 0.00 0.00 0.00 87 1014.0
20260902055920 77 267 1.7 3.5 0.00 0.00 0.00 87 1014.0
20260902055905 77 216 1.7 3.5 0.00 0.00 0.00 87 1013.7
20260902054916 77 246 1.7 3.5 0.00 0.00 0.00 88 1013.7
20260902054633 77 262 2.6 3.5 0.00 0.00 0.00 88 1013.7
20260902053916 77 223 1.7 3.5 0.00 0.00 0.00 88 1014.0
20260902053413 77 210 1.7 3.5 0.00 0.00 0.00 88 1014.0
20260902052914 77 251 1.7 2.6 0.00 0.00 0.00 88 1013.7
20260902052414 78 230 1.7 2.6 0.00 0.00 0.00 88 1013.7
20260902051915 77 228 1.7 2.6 0.00 0.00 0.00 87 1013.7
20260902051642 78 261 0.0 2.6 0.00 0.00 0.00 87 1013.7
20260902050911 78 231 0.0 2.6 0.00 0.00 0.00 87 1013.7
20260902050410 77 228 0.0 2.6 0.00 0.00 0.00 87 1013.7
20260902050131 78 201 0.9 2.6 0.00 0.00 0.00 88 1014.0
20260902045410 78 236 0.9 2.6 0.00 0.00 0.00 88 1014.0
20260902044910 78 224 1.7 2.6 0.00 0.00 0.00 88 1014.0
20260902044410 78 229 1.7 1.7 0.00 0.00 0.00 88 1014.0
20260902043910 78 209 0.9 1.7 0.00 0.00 0.00 88 1014.0
20260902043421 78 234 1.7 1.7 0.00 0.00 0.00 88 1014.0
20260902042910 78 222 1.7 2.6 0.00 0.00 0.00 89 1013.7
20260902042406 78 240 1.7 2.6 0.00 0.00 0.00 89 1013.7
20260902041910 78 226 1.7 1.7 0.00 0.00 0.00 89 1013.7
20260902041406 78 196 0.0 1.7 0.00 0.00 0.00 89 1013.7
20260902040904 78 237 0.9 2.6 0.00 0.00 0.00 89 1014.0
20260902040404 78 229 0.0 1.7 0.00 0.00 0.00 88 1014.0
20260902035904 78 230 0.0 1.7 0.00 0.00 0.00 88 1013.7
20260902035404 78 236 0.0 1.7 0.00 0.00 0.00 88 1014.0
20260902034904 78 228 1.7 2.6 0.00 0.00 0.00 88 1014.0
20260902034405 79 236 0.0 2.6 0.00 0.00 0.00 88 1014.0
20260902033902 79 221 1.7 2.6 0.00 0.00 0.00 87 1014.0
20260902033401 79 235 2.6 2.6 0.00 0.00 0.00 87 1014.3
20260902033120 79 230 2.6 2.6 0.00 0.00 0.00 87 1014.0
20260902032400 79 223 1.7 2.6 0.00 0.00 0.00 87 1014.0
20260902031901 79 234 1.7 2.6 0.00 0.00 0.00 87 1014.0
20260902031402 79 243 0.9 2.6 0.00 0.00 0.00 87 1014.0
20260902030900 79 246 1.7 2.6 0.00 0.00 0.00 87 1014.0
20260902030400 79 236 1.7 2.6 0.00 0.00 0.00 87 1014.0
20260902025900 79 239 1.7 2.6 0.00 0.00 0.00 87 1014.0
20260902025359 79 257 1.7 2.6 0.00 0.00 0.00 87 1014.0
20260902024857 80 253 1.7 2.6 0.00 0.00 0.00 87 1014.0
20260902024358 80 231 1.7 1.7 0.00 0.00 0.00 87 1014.0
20260902023856 80 264 1.7 1.7 0.00 0.00 0.00 87 1014.0
20260902023616 80 258 1.7 1.7 0.00 0.00 0.00 87 1014.3
20260902022856 80 249 1.7 1.7 0.00 0.00 0.00 87 1014.3
20260902022356 80 249 1.7 2.6 0.00 0.00 0.00 87 1014.0
20260902021856 80 254 1.7 2.6 0.00 0.00 0.00 87 1014.0
20260902021354 80 282 1.7 1.7 0.00 0.00 0.00 87 1014.0
20260902020853 80 254 1.7 1.7 0.00 0.00 0.00 87 1013.7
20260902020353 80 237 1.7 1.7 0.00 0.00 0.00 87 1013.7
20260902015853 80 246 0.9 1.7 0.00 0.00 0.00 87 1014.0
20260902015351 80 253 0.9 1.7 0.00 0.00 0.00 87 1014.0
20260902014851 81 250 0.9 1.7 0.00 0.00 0.00 86 1013.7
20260902014617 81 244 0.9 1.7 0.00 0.00 0.00 86 1013.7
20260902013849 81 262 0.9 1.7 0.00 0.00 0.00 85 1014.0
20260902013351 81 240 1.7 1.7 0.00 0.00 0.00 85 1013.7
20260902012850 81 257 0.9 1.7 0.00 0.00 0.00 84 1013.7
20260902012348 82 234 0.9 1.7 0.00 0.00 0.00 84 1013.7
20260902011849 82 223 1.7 1.7 0.00 0.00 0.00 84 1013.3
20260902011401 82 239 0.9 1.7 0.00 0.00 0.00 83 1013.7
20260902010902 82 244 0.9 2.6 0.00 0.00 0.00 83 1013.3
20260902010346 82 255 1.7 2.6 0.00 0.00 0.00 82 1013.3
20260902010111 83 263 1.7 2.6 0.00 0.00 0.00 82 1013.3
20260902005347 83 260 2.6 2.6 0.00 0.00 0.00 81 1012.9
20260902005105 83 262 0.0 2.6 0.00 0.00 0.00 81 1012.9
20260902004346 83 246 1.7 2.6 0.00 0.00 0.00 80 1012.5
20260902003845 84 225 0.9 1.7 0.00 0.00 0.00 80 1012.9
20260902003344 84 214 0.9 1.7 0.00 0.00 0.00 79 1012.9
20260902002843 84 250 1.7 2.6 0.00 0.00 0.00 79 1012.9
20260902002343 85 230 0.9 2.6 0.00 0.00 0.00 80 1012.5
20260902001842 85 254 0.0 2.6 0.00 0.00 0.00 79 1012.9
20260902001342 85 223 0.9 2.6 0.00 0.00 0.00 80 1012.9
20260902001108 85 237 1.7 2.6 0.00 0.00 0.00 80 1012.9
20260902000344 85 240 1.7 1.7 0.00 0.00 0.00 80 1012.9
20260901235841 86 248 0.9 1.7 0.00 0.00 0.00 80 1012.9
20260901235339 86 256 0.9 1.7 0.00 0.00 0.00 80 1013.3
20260901234841 86 224 1.7 1.7 0.00 0.00 0.00 79 1012.9
20260901234352 86 257 0.9 1.7 0.00 0.00 0.00 79 1012.9
20260901233837 87 266 0.9 1.7 0.00 0.00 0.00 78 1013.3
20260901233338 87 261 1.7 1.7 0.00 0.00 0.00 78 1013.3
20260901232836 87 252 0.9 1.7 0.00 0.00 0.00 78 1013.3
20260901232336 87 255 0.9 1.7 0.00 0.00 0.00 78 1013.3
20260901231837 87 221 0.0 2.6 0.00 0.00 0.00 78 1013.3
20260901231335 87 252 0.9 2.6 0.00 0.00 0.00 77 1013.3
20260901230836 88 266 1.7 2.6 0.00 0.00 0.00 77 1013.3
20260901230336 88 248 1.7 3.5 0.00 0.00 0.00 76 1012.9
20260901225836 88 236 1.7 3.5 0.00 0.00 0.00 75 1013.3
20260901225333 88 220 1.7 2.6 0.00 0.00 0.00 76 1013.3
20260901224834 88 215 1.7 2.6 0.00 0.00 0.00 76 1013.3
20260901224333 88 251 1.7 2.6 0.00 0.00 0.00 76 1013.3
20260901223843 88 256 0.9 1.7 0.00 0.00 0.00 76 1013.3
20260901223331 88 234 1.7 2.6 0.00 0.00 0.00 75 1013.3
20260901222831 88 226 1.7 2.6 0.00 0.00 0.00 74 1013.7
20260901222330 89 223 1.7 2.6 0.00 0.00 0.00 74 1013.7
20260901221829 89 265 1.7 3.5 0.00 0.00 0.00 75 1013.3
20260901221329 89 261 0.9 3.5 0.00 0.00 0.00 74 1013.7
20260901220830 89 262 1.7 3.5 0.00 0.01 0.00 74 1013.7
20260901220329 89 256 3.5 3.5 0.00 0.01 0.00 74 1013.3
20260901220049 89 229 1.7 3.5 0.00 0.01 0.00 74 1013.3
20260901215327 89 202 1.7 4.3 0.00 0.01 0.00 74 1013.3
20260901214827 89 355 0.9 4.3 0.00 0.01 0.00 73 1013.3
20260901214327 90 355 0.9 4.3 0.00 0.03 0.00 73 1013.3
20260901213827 90 248 1.7 3.5 0.00 0.03 0.00 73 1013.3
20260901213326 89 271 0.9 3.5 0.00 0.03 0.00 74 1013.3
20260901212826 89 254 1.7 3.5 0.00 0.05 0.00 74 1013.3
20260901212550 89 228 0.9 2.6 0.00 0.05 0.00 76 1013.7
20260901212045 89 280 1.7 2.6 0.00 0.05 0.00 77 1013.7
20260901211323 90 244 1.7 2.6 0.00 0.05 0.00 75 1013.3
20260901210822 90 248 1.7 3.5 0.00 0.05 0.00 75 1013.3
20260901210322 90 232 1.7 3.5 0.00 0.05 0.00 74 1013.7
20260901205821 90 227 2.6 3.5 0.00 0.05 0.00 73 1013.3
20260901205325 90 261 2.6 4.3 0.00 0.05 0.00 72 1013.7
20260901204821 90 253 1.7 4.3 0.00 0.05 0.00 73 1013.7
20260901204319 90 258 1.7 2.6 0.00 0.05 0.00 73 1013.7
20260901203821 89 249 1.7 3.5 0.00 0.05 0.00 74 1013.7
20260901203319 89 263 2.6 3.5 0.00 0.05 0.00 74 1013.7
20260901202819 90 256 1.7 4.3 0.00 0.05 0.00 73 1013.7
20260901202318 90 290 1.7 4.3 0.00 0.05 0.00 72 1013.7
20260901201819 91 247 2.6 4.3 0.00 0.05 0.00 71 1013.7
20260901201316 91 245 1.7 4.3 0.00 0.05 0.00 71 1013.7
20260901200817 91 272 1.7 4.3 0.00 0.05 0.00 71 1013.7
20260901200316 91 236 2.6 4.3 0.00 0.07 0.00 71 1013.7
20260901195816 91 250 1.7 4.3 0.00 0.07 0.00 70 1013.7
20260901195316 91 240 3.5 4.3 0.00 0.07 0.00 72 1013.3
20260901194815 91 257 3.5 4.3 0.00 0.07 0.00 71 1013.7
20260901194314 91 249 3.5 4.3 0.00 0.07 0.00 73 1013.7
20260901193816 91 223 1.7 5.2 0.00 0.07 0.00 73 1013.7
20260901193315 91 251 1.7 5.2 0.00 0.07 0.00 73 1013.7
20260901192814 91 224 3.5 5.2 0.00 0.07 0.00 72 1014.0
20260901192313 91 252 1.7 5.2 0.00 0.07 0.00 74 1014.0
20260901191811 91 267 3.5 5.2 0.00 0.07 0.00 74 1013.7
20260901191324 91 256 3.5 5.2 0.00 0.07 0.00 72 1014.0
20260901190815 91 256 1.7 5.2 0.00 0.07 0.00 75 1014.0
20260901190310 91 245 1.7 5.2 0.00 0.07 0.00 73 1014.0
20260901185812 91 281 3.5 4.3 0.00 0.07 0.00 74 1014.0
20260901185529 90 243 1.7 4.3 0.00 0.07 0.00 74 1014.0
20260901184810 90 246 1.7 5.2 0.00 0.07 0.00 72 1014.0
20260901184309 91 244 3.5 5.2 0.00 0.07 0.00 71 1014.0
20260901183807 90 223 2.6 7.0 0.00 0.07 0.00 71 1014.0
20260901183308 90 261 1.7 7.0 0.00 0.07 0.00 70 1014.3
20260901182807 90 241 3.5 3.5 0.00 0.07 0.00 72 1014.0
20260901182307 90 263 0.9 3.5 0.00 0.07 0.00 72 1014.0
20260901182254 90 212 1.7 7.0 0.00 0.08 0.00 69 1014.0
20260901181305 90 299 1.7 7.0 0.00 0.08 0.00 69 1014.0
20260901180805 89 265 1.7 4.3 0.00 0.08 0.00 72 1014.3
20260901180305 90 285 2.6 5.2 0.00 0.08 0.00 71 1014.0
20260901175804 90 231 2.6 5.2 0.00 0.08 0.00 70 1014.0
20260901175305 89 254 2.6 5.2 0.00 0.08 0.00 71 1014.3
20260901174802 89 238 1.7 5.2 0.00 0.08 0.00 70 1014.3
20260901174303 89 234 2.6 6.1 0.00 0.08 0.00 70 1014.3
20260901174016 89 259 1.7 5.2 0.00 0.08 0.00 69 1014.3
20260901173859 89 236 0.9 6.1 0.00 0.08 0.00 70 1014.3
20260901172803 89 251 1.7 2.6 0.00 0.08 0.00 73 1014.3
20260901172300 89 224 0.9 5.2 0.00 0.08 0.00 71 1014.3
20260901171758 88 252 3.5 5.2 0.00 0.08 0.00 73 1014.3
20260901171300 88 263 2.6 5.2 0.00 0.08 0.00 73 1014.3
20260901170759 88 252 1.7 5.2 0.00 0.08 0.00 75 1014.3
20260901170311 88 260 3.5 4.3 0.00 0.08 0.00 74 1014.3
20260901165758 88 284 3.5 4.3 0.00 0.08 0.00 77 1014.3
20260901165259 88 229 0.0 4.3 0.00 0.08 0.00 78 1014.7
20260901165016 87 212 3.5 4.3 0.00 0.08 0.00 79 1014.7
20260901164257 87 236 2.6 4.3 0.00 0.08 0.00 78 1014.3
20260901164016 87 233 2.6 4.3 0.00 0.08 0.00 81 1014.7
20260901163256 87 246 3.5 3.5 0.00 0.08 0.00 81 1014.7
20260901162755 86 234 1.7 4.3 0.00 0.08 0.00 82 1014.7
20260901162253 86 251 2.6 4.3 0.00 0.08 0.00 81 1014.7
20260901161754 86 239 1.7 3.5 0.00 0.08 0.00 80 1014.7
20260901161252 85 212 2.6 3.5 0.00 0.08 0.00 79 1015.0
20260901160753 85 307 1.7 3.5 0.00 0.08 0.00 83 1015.0
20260901160254 85 253 1.7 3.5 0.00 0.08 0.00 83 1014.7
20260901160016 85 237 0.0 3.5 0.00 0.08 0.00 84 1014.7
20260901155252 84 285 3.5 5.2 0.00 0.08 0.00 83 1014.7
20260901154750 84 256 1.7 5.2 0.00 0.08 0.00 83 1014.7
20260901154250 84 242 2.6 4.3 0.00 0.08 0.00 85 1014.7
20260901153749 83 225 1.7 4.3 0.00 0.08 0.00 84 1014.7
20260901153250 83 254 2.6 5.2 0.00 0.08 0.00 84 1014.7
20260901153012 83 265 5.2 5.2 0.00 0.08 0.00 84 1014.7
20260901152248 83 210 2.6 3.5 0.00 0.08 0.00 87 1014.7
20260901152231 82 248 2.6 3.5 0.00 0.08 0.00 87 1014.7
20260901151247 82 240 0.9 3.5 0.00 0.08 0.00 87 1014.3
20260901150757 82 263 1.7 3.5 0.00 0.08 0.00 86 1014.7
20260901150246 82 224 2.6 3.5 0.00 0.08 0.00 86 1014.7
20260901150010 81 258 1.7 3.5 0.00 0.08 0.00 87 1014.7
20260901145245 81 215 1.7 2.6 0.00 0.08 0.00 87 1014.3
20260901144743 81 231 1.7 3.5 0.00 0.08 0.00 87 1014.7
20260901144243 81 246 2.6 3.5 0.00 0.08 0.00 87 1014.7
20260901143745 81 344 0.0 3.5 0.00 0.08 0.00 87 1014.7
20260901143245 80 228 1.7 3.5 0.00 0.08 0.00 87 1014.3
20260901143004 80 217 0.9 3.5 0.00 0.08 0.00 87 1014.3
20260901142242 80 250 1.7 2.6 0.00 0.08 0.00 88 1014.7
20260901141742 80 228 0.0 2.6 0.00 0.08 0.00 87 1014.7
20260901141241 80 217 1.7 2.6 0.00 0.08 0.00 88 1014.3
20260901140741 80 269 0.0 2.6 0.00 0.08 0.00 88 1014.3
20260901140239 80 236 1.7 2.6 0.00 0.08 0.00 88 1014.3
20260901135738 79 237 1.7 4.3 0.00 0.08 0.00 88 1014.3
20260901135239 79 260 2.6 4.3 0.00 0.08 0.00 88 1014.3
20260901134737 78 243 2.6 3.5 0.00 0.08 0.00 90 1014.3
20260901134239 78 245 0.9 5.2 0.00 0.08 0.00 90 1014.3
20260901133736 77 261 2.6 5.2 0.00 0.08 0.00 92 1014.3
20260901133237 77 240 0.9 3.5 0.00 0.08 0.00 93 1014.7
20260901132737 76 238 1.7 3.5 0.00 0.08 0.00 93 1014.3
20260901132235 76 229 1.7 2.6 0.00 0.08 0.00 94 1014.3
20260901131736 76 181 0.0 2.6 0.00 0.08 0.00 94 1014.3
20260901131233 75 260 0.9 2.6 0.00 0.08 0.00 94 1014.3
20260901130734 75 220 1.7 2.6 0.00 0.08 0.00 94 1014.7
20260901130233 75 233 0.9 2.6 0.00 0.08 0.00 95 1014.7
20260901125950 75 234 0.9 1.7 0.00 0.11 0.00 95 1014.3
20260901125234 75 229 1.7 1.7 0.00 0.11 0.00 95 1014.7
20260901125012 74 251 0.9 1.7 0.00 0.11 0.00 96 1014.7
20260901124233 74 227 0.9 1.7 0.00 0.11 0.00 96 1014.7
20260901123732 74 202 1.7 1.7 0.00 0.11 0.00 96 1014.7